User: anonymous   Login
Location: Unspecified
(0.0000°N, 0.0000°E)
Time: 00:53:32
(UTC+00:00)
Language:

STARLINK-32890 - Orbit

View from above orbital plane
View from above orbital plane
View from above satellite
View from above satellite

Ground track
Ground track

The orbit is defined by the following mean orbital elements,

1 62896U          26145.33522610 +.00000000 +00000-0 +79107-3 0 00001
2 62896  42.9973 252.0112 0000362 330.2351  29.8480 15.27591397    08
Epoch (UTC): 25 May 2026 08:02:43
Eccentricity: 0.0000362
inclination: 42.9973°
perigee height: 483 km
apogee height: 483 km
right ascension of ascending node: 252.0112°
argument of perigee: 330.2351°
revolutions per day: 15.27591397
mean anomaly at epoch: 29.8480°

The dashed part of the orbit path shows where the satellite is in the earth's shadow,  

DLR